ECMWFFLT2_850_rhum_099.txt.gz
RH
83 78 68 44 25 23 25 30 35 37 35 31 29 28 28 28 27 27 27 28 27 27 28 26 28 28 30 30 27 28 28 28 27 30 36 40 37 27 24 25 23 22 20 18 17 16 15 15 14 13 13 12
82 79 61 33 25 32 39 46 47 46 44 39 35 31 30 29 28 29 28 27 27 26 26 27 28 27 27 26 25 27 25 25 24 23 22 22 21 21 21 21 22 22 20 20 18 17 16 15 15 14 13 13
83 73 47 31 40 48 51 53 52 50 50 48 44 39 34 32 31 30 30 28 28 27 27 27 28 27 26 25 25 24 24 23 22 22 22 21 21 20 21 20 20 20 20 20 19 18 18 16 16 15 14 14
77 55 39 44 54 55 56 55 54 54 54 54 51 47 42 37 34 32 31 30 29 28 28 28 28 28 27 26 25 24 23 23 23 23 22 22 22 21 21 21 21 20 20 19 19 19 18 17 16 16 15 14
61 47 49 57 58 58 59 57 57 58 57 57 54 51 46 40 36 33 32 31 31 31 30 30 30 29 28 27 25 25 24 24 24 23 24 23 23 23 22 22 22 22 22 20 20 19 19 18 17 16 15 15
55 56 60 59 60 61 61 59 60 60 59 58 55 52 47 42 37 35 35 34 34 34 33 33 32 32 30 28 26 26 26 26 26 26 26 26 25 25 25 24 24 23 23 23 22 21 20 19 18 17 16 16
63 63 61 61 62 62 61 61 60 60 60 58 55 52 47 44 42 40 40 39 38 38 38 37 35 33 30 28 28 27 28 28 29 30 30 30 30 29 29 28 27 27 26 25 24 24 23 22 21 20 18 17
66 63 62 63 63 62 61 60 60 60 58 56 53 50 47 45 44 44 43 42 42 41 40 38 35 32 30 29 29 29 30 31 31 33 35 35 35 34 34 33 32 31 30 29 28 27 26 25 24 23 22 20
64 62 63 63 61 61 59 59 59 57 54 52 50 48 47 46 46 45 45 44 42 40 38 35 33 31 30 30 30 30 31 32 33 34 35 36 37 37 37 37 36 36 35 34 33 32 30 29 28 27 26 24
63 61 62 61 60 59 57 58 55 53 52 50 49 48 47 46 45 44 42 41 38 37 35 33 33 32 32 32 32 33 34 34 35 35 36 36 37 38 39 39 39 39 39 39 38 38 37 35 33 31 30 28
61 61 61 60 58 57 55 54 52 51 50 48 48 45 44 43 41 40 38 37 36 35 35 34 34 35 35 36 37 36 37 38 37 38 38 39 39 39 40 40 41 41 41 41 41 41 40 40 39 37 35 33
61 60 59 58 56 55 53 52 51 49 47 45 43 41 40 39 38 37 37 37 37 37 37 37 37 38 39 38 40 40 40 41 41 42 41 41 41 41 41 41 41 41 41 42 41 41 41 41 41 41 40 38
60 58 57 56 54 53 51 50 48 45 44 41 39 39 38 38 39 39 39 40 40 41 41 42 42 42 42 42 43 43 44 44 44 44 44 44 44 44 44 43 43 42 42 42 42 42 41 42 42 42 42 41
56 55 53 52 51 50 48 46 44 41 40 40 40 40 41 42 44 45 46 47 47 47 47 47 47 46 46 46 46 46 46 46 46 46 46 46 45 45 45 45 45 43 43 43 43 43 42 42 42 42 43 42
52 51 50 50 48 46 45 42 41 41 41 43 45 47 49 50 50 50 48 47 46 45 44 44 43 43 43 43 42 42 42 41 41 40 40 40 39 39 40 40 40 41 41 41 42 43 43 43 42 42 43 42
50 49 49 47 46 44 43 43 43 46 48 50 52 52 50 47 44 41 37 34 32 30 30 29 29 29 29 30 29 28 28 28 27 27 27 27 27 27 27 28 29 30 31 32 34 36 38 40 40 41 41 41
49 48 47 45 44 44 45 48 51 52 53 50 46 42 37 34 31 28 26 24 22 21 19 18 18 18 19 19 19 18 18 18 18 18 17 17 17 17 17 17 17 18 19 20 21 23 26 29 33 36 37 39
48 46 45 45 46 49 52 54 53 49 43 38 34 32 30 29 27 26 24 22 19 18 16 15 15 15 15 15 15 15 15 15 14 14 14 14 14 14 13 13 13 13 13 13 14 14 16 18 22 25 28 32
46 46 45 48 51 53 53 48 42 37 33 33 32 32 31 29 27 24 21 19 17 15 14 14 14 14 14 14 13 13 13 13 13 12 13 12 13 13 12 13 12 12 12 12 12 12 13 14 15 17 19 24
45 47 49 52 53 49 43 37 35 34 35 35 34 31 29 26 23 20 18 16 15 14 14 13 13 13 12 12 11 11 11 11 11 10 11 10 10 11 10 11 11 11 11 11 11 11 12 13 13 14 16 18
47 50 53 52 45 39 35 36 37 38 38 35 31 27 24 21 19 18 17 16 15 13 12 12 11 11 10 10 10 9 9 9 9 9 9 9 8 9 9 9 9 9 9 9 10 10 10 11 12 13 14 16
51 53 50 44 38 37 38 40 41 39 36 31 26 23 21 20 18 18 17 16 16 13 12 11 10 10 9 9 9 9 8 8 8 8 8 8 8 8 8 8 8 8 8 8 8 9 9 9 10 11 12 13
53 49 42 38 38 41 43 43 41 36 31 27 24 22 21 20 19 19 19 18 16 14 12 10 9 9 9 8 8 8 8 8 8 7 7 8 7 7 7 7 8 7 8 8 8 8 8 8 9 9 10 11
49 43 39 39 40 44 46 42 37 32 28 26 25 25 24 22 21 20 19 18 17 15 12 10 9 8 8 8 8 8 8 8 7 8 8 8 7 7 8 7 7 7 7 7 8 8 8 8 8 8 8 9
46 42 38 39 42 45 43 37 32 30 29 29 29 30 29 27 25 23 22 20 17 15 12 10 9 8 8 8 8 8 8 8 8 8 8 8 8 8 8 8 7 8 7 8 8 8 8 8 8 8 10 12
46 42 38 40 44 42 37 32 31 31 32 33 35 36 36 34 32 29 27 24 19 16 12 10 9 8 8 8 8 8 8 9 9 9 9 8 8 8 8 8 8 8 8 8 8 7 8 8 8 9 10 11
45 40 39 43 42 36 33 32 33 35 37 40 42 43 43 43 41 38 34 30 24 18 14 11 10 9 9 9 9 9 9 9 9 9 9 9 9 9 9 8 8 9 8 9 8 8 10 10 8 9 10 10
43 40 43 44 37 33 33 34 36 39 42 46 47 48 49 49 49 47 42 38 32 23 16 13 11 10 10 9 9 9 9 9 9 9 9 9 10 9 9 9 9 9 9 9 9 10 11 10 11 14 14 10
42 42 46 42 34 33 35 36 38 41 45 50 51 52 53 52 53 52 49 46 41 32 22 15 14 14 12 11 10 9 10 9 9 10 10 10 10 10 10 10 10 9 10 9 10 10 11 15 23 24 17 12
43 44 47 40 31 32 36 38 38 41 47 51 53 56 57 56 55 55 54 52 50 44 31 20 17 18 17 14 11 10 10 10 10 10 10 10 10 10 10 10 10 10 10 10 10 10 10 17 26 25 19 19
44 45 47 41 33 32 36 38 37 41 50 52 55 61 63 63 60 58 59 58 58 54 42 29 23 23 24 20 15 11 10 9 10 10 10 10 10 10 10 10 10 10 10 10 10 11 11 13 17 17 17 21

ECMWFFLT2_850_rhum_102.txt.gz
RH
82 78 78 56 29 34 46 47 47 46 48 49 46 43 37 34 30 29 29 27 29 28 27 28 27 27 25 25 25 24 24 22 22 21 21 21 19 20 20 20 20 19 20 19 20 20 20 20 20 20 20 18
84 85 75 45 35 48 50 49 50 49 49 48 48 47 42 38 33 31 30 29 29 28 29 29 29 28 26 27 25 24 24 23 23 22 22 21 21 21 20 21 20 21 20 20 20 20 20 20 19 20 19 18
90 86 62 42 48 55 53 53 53 51 49 46 45 43 40 36 33 32 30 30 30 30 30 30 30 29 28 27 26 26 25 25 24 24 23 23 23 22 22 22 21 21 21 21 21 21 21 20 20 19 19 19
90 75 52 49 56 56 56 57 55 54 49 45 42 40 38 36 34 34 32 32 31 31 31 31 31 30 30 28 27 27 25 26 26 26 25 25 25 25 25 25 24 24 23 23 22 22 22 21 22 21 20 20
78 62 54 57 58 57 59 58 57 55 49 45 42 39 39 38 37 36 35 34 33 33 32 32 32 31 30 28 27 27 27 27 27 28 28 28 28 28 28 28 28 27 27 27 26 25 24 24 24 23 23 22
65 60 60 59 58 60 60 58 57 54 50 45 42 42 41 40 39 38 37 36 34 33 32 32 31 31 30 29 28 28 29 29 30 32 31 31 31 31 31 31 31 30 30 29 29 29 27 28 27 26 26 25
63 64 61 60 61 62 59 58 56 53 49 45 44 44 43 42 40 38 37 35 35 33 32 32 31 31 31 30 30 30 31 32 33 34 34 35 35 35 35 35 35 34 34 32 31 31 30 30 30 30 29 29
66 64 61 61 62 61 59 56 54 51 48 47 47 45 44 42 40 38 36 35 34 34 33 33 33 33 33 32 33 33 33 34 34 35 36 36 36 37 37 36 37 36 37 37 36 35 34 33 32 32 32 32
66 64 61 62 61 59 57 54 53 51 49 48 47 45 43 40 38 37 36 36 35 35 35 35 35 36 36 36 36 36 36 36 36 36 36 36 37 37 38 38 38 39 39 39 39 39 38 38 36 35 34 34
66 63 60 60 59 57 55 53 52 50 49 48 45 43 41 38 38 37 37 38 38 39 39 39 39 38 37 36 35 34 33 32 32 32 32 33 34 34 35 36 37 37 38 38 39 39 39 39 39 38 37 36
64 61 60 59 57 55 53 52 51 50 48 45 43 40 39 39 39 40 42 43 43 43 41 38 36 33 31 29 27 26 25 25 24 24 25 25 26 26 27 27 28 29 30 31 32 33 34 34 35 37 37 38
62 60 59 57 55 53 51 50 49 47 45 42 40 39 40 42 44 45 46 44 41 37 33 31 28 27 25 24 23 21 20 19 18 17 17 17 17 16 17 17 18 18 18 20 21 22 22 24 25 27 29 32
61 59 57 54 52 51 49 48 47 44 42 40 40 42 45 47 47 45 40 36 32 30 29 28 27 26 25 22 20 18 16 14 13 13 12 12 12 12 12 12 12 12 12 12 13 13 13 15 15 16 19 21
60 56 53 52 50 49 48 47 45 43 41 42 44 46 47 45 41 36 33 31 30 30 30 29 28 25 21 18 16 14 13 13 12 12 12 12 12 12 11 11 11 11 11 11 11 11 11 11 11 11 12 12
56 52 51 50 49 48 47 45 43 42 43 45 47 46 42 37 33 31 31 32 32 32 30 27 23 19 16 14 13 13 13 12 12 12 12 12 12 12 12 11 12 11 11 11 11 11 11 11 11 10 10 10
52 50 50 49 49 48 45 44 42 44 47 47 45 40 36 33 32 33 34 34 32 28 24 20 17 15 14 13 13 13 13 12 12 12 12 12 12 12 12 12 11 12 11 11 11 11 11 11 11 11 11 10
49 49 49 49 48 46 44 44 46 48 48 44 39 35 34 34 35 35 34 31 26 21 17 15 15 14 14 13 13 12 12 12 12 12 12 12 12 12 12 12 12 12 11 12 11 11 11 11 11 11 11 11
49 49 49 49 46 44 44 46 49 48 43 38 35 35 36 36 37 34 30 24 19 17 15 15 15 14 14 13 13 13 12 12 12 12 12 12 12 12 12 12 12 12 11 11 11 11 11 11 11 11 11 11
50 50 49 47 44 44 46 49 48 43 38 36 36 37 38 38 34 28 22 19 17 16 16 16 15 15 14 13 12 12 12 12 12 11 12 12 12 12 12 12 11 11 11 11 11 11 11 11 11 11 11 11
50 49 47 45 44 45 47 48 44 40 38 37 38 39 38 34 28 22 19 18 17 17 16 16 16 15 14 13 12 12 12 11 11 11 11 11 11 11 11 11 11 11 11 11 11 11 11 11 10 11 10 10
49 47 45 43 44 46 48 46 41 39 38 38 40 39 34 28 23 21 20 19 18 17 17 16 15 15 14 13 12 11 11 11 11 11 11 11 11 11 11 11 11 11 11 11 11 11 10 11 10 11 11 10
47 45 44 44 45 47 47 44 41 39 39 40 40 35 28 24 23 23 22 21 20 19 18 17 16 15 13 13 12 11 11 10 11 10 10 11 10 10 10 10 11 10 11 11 11 11 11 11 11 10 10 10
45 44 43 44 46 48 46 43 40 39 41 41 36 29 26 25 25 25 26 25 24 23 21 19 18 16 14 13 11 11 11 10 10 10 10 10 10 10 10 10 11 10 10 11 11 11 11 11 11 11 11 11
41 41 41 43 46 46 45 42 40 41 41 38 31 28 27 28 28 29 30 31 30 30 27 24 21 19 16 13 12 11 11 10 10 10 10 10 10 10 10 10 10 10 11 11 11 11 12 11 12 12 11 12
36 38 40 44 47 46 44 41 41 42 39 33 29 29 29 30 32 33 34 35 37 37 36 33 28 24 20 16 13 11 11 11 10 10 10 10 10 10 10 11 10 11 11 11 12 11 12 13 15 18 17 14
35 38 41 45 47 45 44 41 41 42 36 30 28 29 30 32 34 36 37 39 41 42 43 42 37 31 27 21 16 13 11 11 11 11 11 10 10 10 11 11 11 11 11 12 12 11 14 16 21 27 27 22
34 37 41 46 47 45 43 41 41 41 33 28 29 30 32 34 36 38 40 42 44 45 46 47 45 39 33 28 22 16 13 12 12 12 11 11 11 10 11 11 11 11 11 12 11 13 18 19 20 22 27 32
34 39 43 47 47 45 43 41 42 41 32 27 30 31 34 36 38 40 42 45 48 50 51 51 50 47 41 36 30 23 17 14 14 13 12 12 11 11 11 11 11 12 11 11 12 14 18 20 23 23 25 30
36 40 45 48 46 45 43 41 43 40 31 27 31 33 37 38 40 43 45 49 52 55 57 56 56 53 48 42 37 31 23 18 17 15 14 12 11 11 11 11 11 11 11 12 11 12 16 20 25 29 29 25
37 41 45 47 43 41 41 40 41 39 32 29 33 37 39 40 42 46 49 53 58 62 65 65 63 60 55 50 46 41 33 24 21 19 16 13 11 11 11 11 11 11 11 11 11 10 12 15 18 24 29 28
36 40 44 44 42 40 41 41 41 42 39 34 36 40 41 42 45 49 54 58 63 69 74 75 73 68 63 58 54 51 44 34 27 24 20 14 12 11 11 11 11 11 11 11 13 13 10 11 12 15 20 25

ECMWFFLT2_850_rhum_105.txt.gz
RH
84 81 86 72 41 44 51 45 45 41 41 42 41 40 37 34 31 30 29 29 29 28 28 27 27 27 26 26 25 25 24 24 23 23 23 23 23 24 24 24 24 24 24 24 23 24 23 22 23 23 21 21
86 85 88 66 45 52 51 47 46 40 39 37 37 36 34 33 32 32 31 31 30 29 29 28 28 27 27 26 25 25 24 24 24 24 23 24 24 24 25 24 25 25 25 25 25 26 25 25 24 24 24 25
83 84 83 60 50 54 50 50 47 42 40 36 37 35 35 35 34 34 33 32 31 30 29 28 28 27 27 26 26 25 25 26 25 26 25 26 26 25 26 26 27 26 27 27 27 27 27 27 25 26 28 28
80 84 74 56 54 55 51 52 48 44 41 38 39 37 37 36 36 35 33 33 31 31 30 29 29 28 28 27 27 27 27 28 27 28 28 28 28 28 28 28 28 28 28 28 28 28 28 28 27 29 29 30
85 80 65 58 58 56 54 52 48 45 41 40 40 39 39 37 36 35 33 33 31 31 30 30 30 30 30 30 30 30 31 31 31 31 31 31 31 31 31 31 31 30 30 30 30 29 28 29 29 30 30 30
84 70 62 62 59 58 57 52 49 45 43 43 42 41 39 37 36 34 34 33 32 32 32 32 32 33 33 33 34 34 34 34 34 34 33 34 33 33 33 32 32 32 32 31 31 31 30 30 30 31 31 31
74 63 65 63 59 59 57 51 48 45 44 44 42 42 39 38 36 34 34 33 34 34 34 34 34 35 34 33 33 31 30 29 29 28 28 28 28 28 29 29 29 29 30 30 30 31 31 31 31 31 31 32
66 63 65 62 60 60 55 50 47 45 45 44 43 41 39 37 36 35 35 35 36 36 36 35 32 30 28 26 25 24 23 22 22 21 20 20 19 20 20 20 21 21 22 23 24 25 26 27 28 29 30 30
66 67 66 62 60 58 54 49 46 45 45 44 43 40 38 36 35 36 37 38 38 36 34 30 27 25 25 25 24 24 23 21 20 18 16 15 14 14 14 14 14 15 15 15 16 17 18 19 20 22 23 24
71 71 67 63 59 57 53 48 47 46 46 44 42 39 37 36 37 38 38 37 34 31 28 26 27 27 27 27 26 24 21 19 16 14 13 12 12 11 11 11 11 11 11 11 11 11 12 12 13 14 15 17
75 72 66 61 59 56 51 48 47 47 46 44 41 39 38 38 40 40 37 33 29 27 27 27 29 29 28 25 22 19 16 14 12 12 12 11 11 11 11 11 11 11 11 11 10 10 10 10 10 10 10 11
76 71 64 59 56 52 48 48 47 47 46 43 41 39 40 42 42 39 35 30 28 28 29 30 30 28 24 19 16 14 13 12 12 12 12 12 12 12 12 11 11 11 11 11 11 11 10 10 10 10 10 9
75 67 61 58 53 48 47 47 47 47 45 42 40 40 42 43 40 36 32 30 30 31 31 30 27 22 17 14 13 13 13 13 13 13 12 13 12 12 12 12 12 12 12 12 11 11 11 11 10 10 10 10
70 64 60 56 50 47 47 47 47 46 44 41 39 40 42 41 37 33 31 31 32 33 31 26 20 16 14 13 13 13 13 13 13 13 13 13 13 13 13 13 13 12 13 12 12 12 11 11 11 11 11 10
65 62 58 53 48 47 47 47 47 46 42 40 40 41 41 38 34 32 32 33 34 31 26 19 15 14 14 14 13 13 13 13 13 13 13 14 13 13 13 13 13 13 13 13 12 12 12 12 11 11 11 11
62 59 54 50 48 47 48 48 47 44 41 41 42 42 40 35 33 33 34 34 31 26 19 16 15 14 14 14 14 14 14 14 14 14 14 14 14 13 14 14 13 14 13 13 13 12 12 12 12 12 11 11
58 54 50 48 47 48 48 48 46 43 41 42 43 41 37 35 34 35 35 32 26 20 17 16 15 15 15 14 14 14 14 14 14 14 14 14 14 14 14 14 14 14 13 13 13 13 12 12 12 12 11 11
54 50 48 47 48 48 48 47 45 42 42 43 42 39 36 35 35 36 34 28 21 18 17 17 16 16 15 15 15 14 14 14 14 14 14 14 14 14 14 14 14 13 13 13 13 13 13 12 12 12 11 12
51 48 47 47 48 48 48 46 42 42 43 44 41 38 36 36 36 35 30 23 19 19 18 17 17 16 16 15 15 15 15 14 15 14 14 14 14 14 14 14 14 14 13 13 13 13 12 12 12 12 12 11
48 47 47 48 49 48 47 45 42 43 44 44 41 38 37 37 36 32 25 21 20 20 19 19 18 17 16 16 15 15 15 14 15 14 14 14 14 14 14 14 14 13 13 13 13 13 13 13 12 12 12 12
47 47 48 49 49 48 46 44 43 44 44 43 41 39 38 37 35 28 22 21 21 21 21 21 20 20 18 17 17 16 15 15 14 14 14 14 14 14 14 14 13 13 13 13 13 13 13 13 13 12 13 13
47 48 49 50 50 48 45 44 44 44 44 42 41 40 38 37 32 25 22 23 23 23 23 24 23 23 21 20 18 17 16 16 15 14 14 13 13 13 13 13 13 13 13 13 13 13 13 13 13 13 13 13
48 49 50 50 48 46 44 43 43 43 44 43 41 39 38 36 29 23 23 24 24 25 25 26 26 26 25 24 23 20 19 18 17 16 14 13 13 13 13 13 13 13 13 13 13 13 14 13 13 14 14 15
48 49 50 49 46 42 40 41 41 42 43 43 41 39 39 35 27 23 24 25 26 28 28 29 29 29 30 30 29 27 24 21 19 17 15 13 13 12 13 12 12 12 12 12 13 14 14 13 14 17 19 18
45 46 46 44 41 37 37 39 40 41 42 43 42 40 40 34 26 24 26 27 29 31 33 34 34 35 36 36 36 35 33 30 25 21 18 15 13 13 12 12 12 12 12 13 13 13 12 13 17 24 28 24
43 44 43 41 39 37 39 42 41 42 42 43 42 41 40 34 27 26 28 30 33 35 36 38 39 40 41 42 43 43 42 39 34 28 23 20 16 14 13 12 12 12 12 12 12 12 14 17 17 21 27 30
42 41 40 40 40 40 43 45 43 43 44 43 42 41 40 36 28 26 29 32 34 37 38 40 41 43 44 47 49 50 49 46 43 38 31 26 22 17 14 12 13 14 13 11 12 13 17 19 17 17 20 30
39 40 39 40 42 44 47 48 45 43 44 41 39 39 39 37 29 26 29 33 35 37 39 40 42 45 47 50 53 55 55 54 51 47 40 34 29 23 17 14 13 15 13 12 12 14 19 19 18 19 19 24
36 40 40 41 42 43 45 47 45 42 40 35 33 35 36 35 30 27 30 33 35 37 39 41 43 47 50 54 57 58 59 60 57 54 49 42 37 31 23 16 14 14 14 15 13 12 16 19 22 23 20 19
31 35 39 40 36 33 36 41 40 36 33 31 31 32 34 36 34 30 30 33 34 36 38 41 43 48 53 57 61 61 61 64 63 60 55 49 44 40 32 21 15 13 14 17 16 14 15 16 19 21 20 21
24 29 34 36 32 30 32 35 36 35 34 34 34 35 37 40 39 35 32 32 34 36 38 41 45 50 56 63 66 66 67 69 69 67 61 55 51 49 42 28 17 13 13 15 18 23 23 18 15 14 15 20

ECMWFFLT2_850_rhum_108.txt.gz
RH
82 82 81 78 59 44 48 46 42 38 35 36 36 35 33 31 30 29 28 27 27 25 26 24 24 25 23 23 23 22 22 22 21 22 22 22 22 22 22 22 23 22 22 22 22 22 21 23 23 23 23 23
86 84 79 73 56 47 50 47 43 38 34 34 33 33 33 32 31 31 30 29 28 27 26 26 25 25 24 24 23 23 23 23 23 23 22 23 23 23 23 23 23 24 24 23 23 23 22 23 23 23 24 24
88 81 71 66 56 50 50 47 44 39 36 35 35 35 34 34 33 32 31 30 29 28 27 27 26 26 26 25 25 26 25 26 25 25 25 25 25 26 26 25 25 25 26 26 25 26 25 24 24 25 25 24
85 73 67 66 58 52 51 48 44 39 37 36 36 36 35 34 33 32 31 31 30 29 29 28 28 27 27 28 28 29 29 30 29 29 28 28 29 28 29 29 29 28 28 29 28 28 28 27 27 26 27 26
80 72 74 70 58 55 53 49 44 40 37 38 38 36 35 34 32 32 31 31 30 29 29 29 30 30 30 30 30 30 30 30 29 28 28 27 28 28 28 28 28 29 28 28 28 28 28 28 28 28 27 28
75 76 79 67 59 58 55 51 45 39 38 38 38 37 35 34 32 32 31 31 31 31 31 31 31 31 30 29 27 27 25 24 23 23 22 22 22 22 22 22 22 23 23 23 23 23 24 24 25 26 26 26
75 82 78 63 60 58 55 52 44 39 39 39 39 38 36 35 33 32 32 31 31 31 31 30 28 26 24 23 22 21 20 19 18 17 17 16 15 15 14 15 15 14 15 15 15 15 16 17 17 19 20 21
82 87 74 60 59 57 55 51 44 41 40 40 40 38 36 34 32 31 31 31 30 27 26 23 21 20 19 18 18 18 17 16 14 13 12 11 11 10 10 10 9 9 10 9 10 10 10 10 11 11 13 13
89 86 70 61 60 57 55 49 43 41 40 41 39 38 36 33 32 31 30 30 28 24 22 20 20 19 18 18 17 15 14 12 11 10 9 9 9 9 9 8 8 8 8 8 8 8 8 8 8 9 9 9
88 79 67 65 62 57 54 48 43 40 40 40 39 38 35 32 32 31 30 29 27 24 22 22 21 20 19 18 15 13 11 10 10 9 9 9 9 9 9 9 8 9 8 8 8 7 8 7 8 8 8 8
81 72 69 68 64 59 54 48 43 40 40 39 39 38 34 32 32 31 30 29 26 24 22 22 22 21 18 16 12 11 10 10 10 10 10 9 10 9 9 9 9 9 9 8 8 8 8 7 8 7 7 8
75 71 71 70 66 60 54 48 43 41 41 40 39 37 34 33 32 32 31 29 26 24 23 22 22 20 16 13 11 11 11 11 11 10 10 10 10 10 10 10 10 10 10 9 9 9 8 8 7 7 7 7
72 71 70 70 67 58 53 49 43 42 42 41 39 37 35 34 34 33 31 29 27 25 24 23 21 17 13 12 11 11 11 11 11 11 10 11 10 11 11 10 10 10 10 10 10 9 9 9 8 8 8 7
71 68 67 69 64 55 53 48 42 44 44 42 40 38 36 36 36 34 31 29 27 26 25 23 19 14 12 12 12 12 12 11 11 11 11 11 11 11 11 11 11 11 11 11 10 10 10 10 9 9 9 8
70 65 63 64 58 54 53 47 43 45 45 43 40 37 36 36 36 34 31 29 29 28 26 21 16 13 13 12 12 12 12 12 12 12 12 11 12 12 11 12 11 11 11 11 11 11 11 11 11 10 10 10
68 63 60 58 54 53 50 45 44 45 44 43 39 36 35 34 35 32 30 29 29 29 24 19 15 14 14 13 13 13 13 13 12 13 13 12 12 12 12 12 12 12 12 12 12 12 12 12 11 11 11 10
67 63 58 53 52 50 46 43 44 44 44 42 37 36 34 33 34 31 29 29 29 27 21 17 15 15 14 14 14 14 14 13 13 14 13 14 13 13 13 13 13 13 13 13 13 12 12 12 12 12 11 11
65 63 56 52 52 49 44 44 45 45 44 42 38 36 36 35 35 33 31 30 29 24 18 16 16 16 15 15 15 15 15 14 14 14 14 14 14 14 14 14 14 14 14 14 13 13 13 13 12 12 12 12
61 59 54 52 53 47 43 45 46 46 45 43 38 35 36 38 36 34 31 30 28 22 17 17 17 16 17 17 16 16 15 15 15 14 15 15 14 15 15 15 15 15 15 14 14 14 14 13 13 13 13 12
59 56 51 50 51 46 44 46 46 46 46 43 39 34 34 37 36 34 32 30 27 20 18 18 17 18 18 18 18 18 17 16 16 15 15 15 15 15 15 15 15 15 16 15 15 15 14 15 14 14 13 13
58 55 50 48 48 46 44 45 47 47 46 43 39 33 32 35 36 34 33 31 26 20 19 19 19 20 20 20 20 19 19 18 17 17 16 16 15 15 15 15 15 15 16 16 16 16 15 15 15 14 14 13
56 54 51 49 47 46 44 45 47 47 46 43 39 35 32 34 36 35 34 32 26 21 20 20 20 21 22 22 22 22 22 21 20 20 18 18 17 16 16 15 16 16 16 16 16 16 16 15 15 15 14 14
53 53 52 50 48 46 44 45 46 47 46 42 39 36 34 35 38 36 34 33 26 21 20 21 22 23 25 25 25 25 24 23 23 22 22 22 20 19 18 16 16 16 16 16 16 16 16 15 15 15 15 15
49 50 50 50 48 44 41 41 44 45 44 41 38 36 34 35 37 34 33 33 27 21 20 22 24 25 27 27 28 28 27 27 26 26 26 26 26 24 22 20 18 17 17 16 16 16 15 15 15 15 15 15
41 42 43 43 42 39 37 38 41 42 40 37 35 34 33 32 34 32 32 33 28 23 21 23 25 28 29 30 31 32 32 32 32 33 33 33 32 30 28 26 23 20 18 17 16 16 15 16 16 15 15 15
34 34 35 35 36 36 37 39 39 38 36 35 34 34 31 30 32 31 31 33 31 25 21 23 26 29 31 33 34 35 36 37 38 39 40 40 39 38 36 34 30 26 22 19 17 16 16 16 15 15 15 15
30 31 33 34 36 38 41 42 41 39 37 37 37 35 31 29 31 30 29 32 33 28 23 23 27 30 33 35 36 38 39 40 41 43 44 46 47 46 45 42 38 33 28 24 19 16 15 15 14 15 16 21
29 33 35 37 39 42 44 45 45 44 42 40 37 33 28 25 27 28 29 32 35 32 26 24 27 30 33 35 37 39 41 43 44 45 48 51 53 53 52 49 45 40 35 30 23 18 15 14 16 18 18 22
28 34 36 39 43 47 48 49 49 47 42 37 32 28 23 21 23 26 29 32 35 35 30 27 26 29 32 34 37 39 41 44 45 47 51 55 57 58 58 56 51 46 41 35 28 21 16 14 16 19 18 17
24 29 31 35 38 39 40 41 39 35 31 28 25 22 20 20 22 25 28 31 34 36 35 30 27 28 30 32 35 38 41 44 46 50 56 60 62 64 64 62 58 53 46 39 32 24 18 15 15 16 15 14
18 22 26 30 31 30 31 31 28 26 28 28 26 24 24 24 24 26 29 32 34 36 37 35 31 29 30 32 34 37 42 45 48 53 60 64 67 69 69 67 64 60 53 44 36 27 20 16 14 13 13 14

ECMWFFLT2_850_rhum_111.txt.gz
RH
79 78 77 76 71 65 51 40 40 38 35 33 32 33 32 32 30 29 28 26 26 25 25 23 24 23 22 22 21 21 21 21 21 20 20 20 20 21 20 20 20 19 19 18 18 18 18 19 17 18 17 18
80 80 79 77 71 63 50 41 41 39 36 33 32 32 31 31 30 29 28 27 27 26 26 25 24 23 23 23 22 22 22 22 22 22 22 22 21 21 21 22 22 21 21 20 20 20 20 21 20 20 19 19
81 82 82 76 69 60 49 43 42 40 37 34 32 32 31 31 30 30 30 29 28 27 26 26 25 25 24 24 24 24 24 24 24 24 24 24 24 24 24 24 25 25 25 24 23 23 23 24 23 23 23 22
84 85 83 75 66 56 48 45 44 41 37 34 33 33 33 33 32 31 31 30 29 28 28 27 26 26 26 26 26 26 26 27 26 27 26 26 27 26 27 26 27 27 26 27 26 26 26 26 25 26 25 25
88 87 83 74 65 54 49 48 46 41 38 35 33 34 34 34 33 32 31 30 29 29 28 28 28 27 28 28 27 28 27 27 27 26 26 25 25 24 24 23 23 23 23 22 22 23 23 24 24 24 25 24
90 88 83 73 64 55 51 51 47 42 37 34 34 34 34 34 33 32 31 30 29 29 29 29 29 29 29 28 27 27 25 23 22 20 20 18 17 16 15 14 14 14 14 14 14 14 14 15 16 16 18 18
91 87 80 72 65 59 53 51 48 43 38 34 34 34 33 33 32 31 30 29 29 28 28 28 28 27 25 24 21 19 18 16 14 13 12 11 10 10 9 9 9 8 8 8 8 8 8 8 9 9 9 10
89 83 75 70 70 64 54 51 48 42 38 34 34 33 31 30 30 29 28 27 26 25 24 24 23 21 18 16 14 14 12 11 11 10 9 8 8 7 7 7 7 7 7 7 7 7 7 7 7 7 7 7
83 74 71 73 78 70 55 50 48 42 37 34 33 32 30 27 26 26 25 23 22 21 19 17 16 14 13 12 12 11 10 9 9 8 7 7 7 7 7 7 7 7 7 6 7 7 6 7 6 7 7 6
82 76 76 82 83 71 59 54 49 42 37 34 33 31 29 27 24 23 23 22 19 18 16 14 13 12 12 12 11 11 9 8 8 8 8 8 7 7 7 7 7 6 6 6 6 7 6 6 6 6 7 6
88 84 86 87 81 69 62 57 49 42 37 34 34 31 30 27 24 23 22 21 19 17 16 14 13 13 13 13 11 10 9 8 8 9 8 8 8 7 8 7 7 7 6 6 6 7 6 6 6 6 6 6
86 85 88 83 73 66 62 57 48 41 37 35 34 32 30 27 24 22 21 20 18 18 17 16 15 14 14 13 11 9 9 9 9 9 9 9 8 8 9 8 8 8 7 7 7 7 7 7 6 7 6 6
81 82 82 75 66 63 61 56 48 41 38 35 34 34 30 27 24 21 21 20 18 18 18 17 17 16 15 12 11 10 10 10 10 10 9 9 9 9 9 9 9 8 8 8 8 8 7 8 7 7 7 7
79 79 74 67 62 61 60 54 48 43 39 37 35 35 32 29 25 22 22 22 20 20 19 19 18 16 15 12 11 11 11 11 10 10 10 10 10 10 10 10 10 9 9 9 8 9 8 8 8 8 8 8
78 75 70 65 62 61 58 53 48 45 41 37 36 36 35 32 28 25 24 24 23 21 20 19 18 15 13 11 11 11 11 11 11 11 11 11 10 11 11 11 11 10 10 10 10 10 9 9 9 9 9 9
75 72 70 68 64 61 57 51 48 46 41 36 36 37 37 33 30 27 26 27 25 22 21 19 17 15 12 11 12 11 12 11 11 12 11 12 12 11 12 11 11 11 11 11 11 11 11 11 10 10 10 9
71 69 69 69 66 62 57 51 49 46 41 36 36 38 38 36 32 30 29 29 27 23 21 18 16 14 12 12 12 12 12 12 12 12 12 12 12 12 12 12 12 12 12 12 12 12 12 12 11 11 11 11
70 68 69 69 67 63 56 50 48 46 41 36 36 37 38 37 34 30 29 29 27 22 20 17 15 14 13 13 13 13 13 13 13 13 14 13 13 13 13 13 13 13 13 13 13 13 13 13 13 12 12 12
68 66 65 64 62 57 52 48 47 45 39 35 34 36 37 36 34 30 28 29 26 23 20 17 16 14 13 13 13 14 14 14 15 14 15 15 14 15 14 14 14 14 14 14 14 14 14 14 13 14 13 13
69 67 64 61 58 53 50 48 47 43 39 36 35 36 36 36 34 30 28 29 27 23 20 18 17 15 14 15 14 15 15 16 16 16 16 16 16 16 16 15 15 15 15 15 15 14 14 15 14 14 14 14
71 70 67 62 58 54 51 50 49 45 42 38 37 36 36 37 36 32 30 30 28 24 21 20 19 16 15 15 16 16 17 18 18 18 18 18 18 18 18 18 17 17 16 16 16 16 15 15 15 15 15 15
71 70 69 66 61 58 53 51 51 48 44 40 37 36 35 36 37 35 32 30 29 26 23 21 20 17 16 16 17 18 19 20 20 20 20 20 20 20 20 20 20 19 19 19 17 17 17 16 16 16 15 15
74 74 72 70 67 63 56 53 52 49 44 39 36 35 33 33 36 37 34 30 29 27 24 23 22 19 16 17 18 19 20 21 22 23 23 24 24 24 24 24 24 23 22 22 21 20 19 18 17 16 16 16
75 76 74 72 67 59 52 48 48 45 40 38 34 32 31 30 33 35 34 30 28 28 26 24 25 21 17 18 19 21 22 23 24 26 26 27 27 28 28 28 28 27 26 25 25 24 23 21 19 17 17 16
64 64 62 59 51 41 38 39 40 39 35 33 30 29 29 28 28 31 31 30 28 27 27 27 27 24 19 18 20 22 23 25 26 27 28 28 30 31 31 32 31 31 31 29 29 27 26 25 22 19 17 16
48 46 42 38 33 28 30 31 31 31 29 29 29 30 29 27 27 29 29 29 29 28 27 28 27 25 22 19 20 23 24 26 26 27 28 29 30 32 33 34 34 34 35 35 34 32 30 28 25 21 19 18
35 33 33 33 33 33 33 32 31 32 33 35 36 35 33 30 28 28 27 28 29 27 26 26 26 26 25 21 20 23 24 25 27 27 28 29 31 33 34 36 36 37 39 40 40 38 35 33 29 26 22 20
30 31 36 40 41 43 43 42 41 42 43 43 42 38 34 28 24 23 24 25 27 26 24 24 26 27 27 24 21 22 24 25 27 28 28 30 32 33 35 37 39 41 43 44 45 44 42 37 32 27 24 21
30 34 38 44 51 55 55 53 51 48 43 38 37 33 26 22 20 21 21 21 24 24 24 24 25 27 29 28 25 23 24 25 27 28 29 31 33 35 37 39 43 45 48 49 49 49 48 42 34 29 29 26
30 33 34 39 43 44 43 41 37 29 22 20 22 20 18 20 20 20 20 20 22 23 24 24 25 28 30 31 29 25 24 26 28 29 30 32 34 38 41 44 47 49 52 55 55 54 53 49 45 42 38 31
33 34 33 33 31 29 27 25 18 13 13 16 18 19 21 23 22 22 21 21 21 22 24 25 26 29 31 33 33 30 27 27 28 29 30 33 36 40 45 48 49 52 57 59 58 58 58 57 55 53 48 39

ECMWFFLT2_850_rhum_114.txt.gz
RH
77 75 75 75 73 72 67 60 49 37 34 34 33 32 33 35 34 33 32 33 39 40 39 33 30 27 24 24 22 20 19 19 19 18 19 18 18 18 17 17 17 16 16 17 16 16 16 16 16 16 17 16
82 81 79 78 75 73 70 64 53 39 34 33 32 31 30 30 29 29 29 27 28 29 28 26 25 23 22 22 21 21 20 20 20 20 20 19 20 19 19 19 18 18 18 19 18 18 18 18 18 18 19 18
84 83 81 79 77 75 72 65 57 42 35 34 32 32 30 31 30 29 30 29 28 28 27 26 25 24 24 23 23 23 22 23 22 22 22 22 23 22 23 23 22 23 22 22 22 22 22 22 22 21 22 21
85 83 81 80 79 77 73 66 58 45 36 35 33 32 31 31 31 31 31 30 30 29 28 27 26 26 25 25 25 25 24 25 24 25 25 25 25 25 25 24 24 23 23 23 22 23 23 23 23 23 23 24
88 84 81 80 81 79 75 68 59 47 38 36 34 32 31 31 32 32 32 31 31 29 29 28 27 27 26 26 26 26 27 27 27 26 24 23 22 20 18 16 16 14 14 14 13 14 14 15 15 17 17 18
90 86 83 83 82 79 76 70 60 47 40 38 35 32 31 32 32 32 32 31 30 30 29 28 28 27 27 27 27 27 26 25 22 20 17 15 12 11 10 9 8 7 8 7 7 7 6 7 7 8 8 9
92 90 88 86 83 80 78 71 60 46 39 39 35 33 31 31 32 31 31 31 30 29 28 28 28 28 27 26 25 22 20 17 14 11 10 8 7 7 6 6 6 6 6 6 6 5 5 5 5 5 5 5
93 92 90 87 84 81 78 70 59 46 38 38 36 33 32 31 30 29 30 29 29 28 28 27 26 25 23 21 17 14 12 10 9 8 7 6 6 5 5 6 6 6 6 6 5 6 6 5 5 5 4 5
94 94 91 88 84 79 74 67 58 47 41 39 37 34 31 30 28 26 27 27 26 25 24 22 20 18 17 15 11 10 9 8 7 6 6 5 5 5 6 5 6 6 5 5 5 5 5 5 5 4 5 4
93 94 91 88 82 74 68 64 60 53 46 42 38 34 31 30 27 24 23 23 22 20 19 17 15 13 12 11 9 9 8 7 6 6 6 6 6 6 6 6 6 6 5 6 5 5 5 5 5 5 5 4
90 91 90 87 79 72 69 69 69 60 52 47 41 35 31 29 26 23 21 20 19 16 15 13 12 11 10 9 8 8 8 7 6 6 6 6 7 6 6 6 6 6 6 6 5 6 6 5 6 5 5 5
88 91 91 88 81 78 77 78 75 63 56 51 43 36 31 28 25 23 20 18 17 15 12 11 10 9 9 9 9 9 8 7 6 7 7 7 7 7 7 7 6 7 6 7 7 6 6 6 6 6 6 6
83 88 89 88 86 84 82 81 74 62 57 53 44 38 32 28 26 23 20 17 16 14 11 10 9 9 9 9 9 8 8 7 7 7 8 7 8 7 7 7 7 7 7 7 7 7 7 7 7 7 7 7
80 84 84 85 86 85 82 79 70 60 57 53 45 39 33 29 27 24 21 18 16 15 12 10 9 9 10 10 9 9 8 8 8 8 8 8 8 8 8 8 8 8 8 8 8 8 8 7 8 8 7 8
78 79 79 79 82 80 78 75 67 59 56 52 45 40 34 30 27 24 21 18 17 15 13 12 11 11 11 11 10 9 8 8 9 9 9 9 9 9 9 9 9 9 9 9 9 9 8 9 8 8 9 8
73 74 74 75 75 73 71 70 64 58 55 50 44 40 35 31 28 25 22 19 17 16 15 14 13 13 13 12 10 9 9 9 10 10 10 10 10 10 10 10 10 10 11 10 10 10 10 10 10 10 10 9
69 70 71 70 69 66 65 65 63 57 53 50 45 41 37 34 31 28 26 23 20 18 17 15 14 13 13 12 11 10 10 10 11 11 11 11 11 11 11 11 11 11 12 11 12 12 11 12 11 11 11 11
68 70 71 69 67 64 63 63 62 58 55 52 48 43 39 36 33 31 29 27 23 21 19 17 15 14 14 13 11 10 10 11 11 11 11 11 12 12 12 12 12 12 12 13 13 13 13 13 13 12 12 12
70 72 71 69 68 66 65 65 63 61 58 55 51 46 42 39 36 33 31 30 26 23 21 18 16 15 15 13 12 11 11 12 12 12 12 12 13 13 13 13 13 14 14 14 14 14 14 14 14 13 14 13
75 74 74 70 69 70 69 67 65 63 60 56 52 48 45 42 38 35 33 32 29 25 22 18 17 17 17 15 13 12 12 13 13 13 13 13 14 14 14 14 15 15 15 15 15 15 15 15 15 15 15 14
81 78 77 73 72 73 72 70 66 63 60 56 52 49 46 44 40 37 35 34 32 28 23 20 20 20 19 17 15 14 13 14 14 14 15 15 15 15 16 16 16 16 16 17 17 17 17 17 17 16 16 16
85 83 81 78 76 75 74 72 68 65 61 55 52 50 46 44 42 39 38 37 35 31 26 23 22 22 21 19 17 15 13 15 15 15 16 16 17 17 17 18 18 18 18 19 19 19 19 19 19 19 18 17
88 86 85 82 79 79 78 76 74 70 63 56 53 50 47 46 43 41 40 38 36 34 30 25 23 23 22 20 19 17 14 15 15 16 17 17 18 19 19 20 20 21 20 21 21 21 21 21 21 20 20 20
90 89 87 86 83 80 75 74 75 72 66 60 54 49 48 48 46 44 42 40 38 36 33 28 25 25 24 22 21 19 15 15 16 17 19 19 20 21 21 22 22 23 23 23 24 24 24 23 23 23 23 23
86 83 82 82 77 68 64 66 69 66 62 56 49 47 48 48 46 43 42 40 38 37 35 30 27 26 26 24 22 21 17 16 18 20 21 22 23 23 23 24 25 25 26 26 26 26 27 27 26 26 25 24
81 75 71 68 61 54 54 56 55 52 49 46 44 44 44 43 42 41 40 39 38 37 35 32 28 25 25 25 23 23 21 18 19 21 22 23 23 24 25 26 27 27 27 28 28 29 31 31 29 27 26 26
77 69 65 63 60 59 59 56 53 51 51 51 50 48 46 43 41 40 39 39 38 37 35 32 29 26 26 27 25 26 24 21 19 20 22 23 24 25 26 26 27 27 28 29 29 32 33 32 31 30 29 28
74 71 70 69 70 71 71 68 65 65 64 62 60 55 48 41 37 38 38 38 39 39 37 34 30 28 27 27 26 27 27 24 21 20 21 22 24 26 26 25 26 27 29 29 30 33 34 33 33 34 31 29
74 75 73 73 77 79 80 79 78 75 68 61 58 49 37 31 32 35 36 37 39 39 38 35 32 30 29 28 28 27 27 26 23 21 20 22 23 25 24 25 27 29 29 30 32 33 34 35 37 35 33 32
71 70 68 69 72 73 72 70 66 56 45 41 40 33 27 29 32 33 33 34 36 38 38 37 34 32 30 30 29 28 28 28 26 23 21 22 23 24 25 27 30 30 29 32 35 35 36 38 40 40 39 39
63 63 63 65 65 64 62 57 48 37 34 35 35 33 35 35 32 31 31 32 34 36 37 38 37 36 33 32 32 31 32 30 27 25 24 23 23 24 26 28 29 28 30 34 35 35 39 42 44 48 47 46

ECMWFFLT2_850_rhum_117.txt.gz
RH
81 74 72 69 65 64 65 67 65 60 49 38 35 37 46 54 53 47 49 65 67 54 49 47 43 42 42 40 27 20 20 18 18 18 18 17 17 17 16 17 16 16 16 16 16 16 16 15 16 15 15 15
80 75 73 70 68 68 69 70 69 65 56 44 34 31 32 33 32 32 33 38 40 36 35 34 33 31 30 29 24 21 22 20 21 20 20 20 20 20 19 20 19 20 19 19 20 19 20 19 19 19 18 18
81 77 75 74 74 74 74 73 72 68 62 51 37 31 30 30 29 30 30 30 31 30 29 29 28 27 25 25 24 23 23 23 23 22 23 23 23 23 23 23 23 23 22 22 22 22 22 22 22 22 22 21
84 80 79 80 80 79 78 76 75 71 67 58 42 33 31 30 30 29 31 31 31 30 29 29 28 27 26 25 25 25 24 24 24 25 25 24 24 23 21 20 18 17 16 15 15 14 14 14 15 15 17 17
86 84 83 82 82 80 79 77 77 75 71 63 46 35 32 30 29 30 31 31 31 31 30 29 28 28 27 27 26 26 26 25 25 25 23 21 18 14 12 10 8 8 7 6 6 5 6 5 6 6 7 8
89 88 86 83 82 79 77 77 78 77 72 66 51 37 33 31 30 30 30 31 31 31 30 30 29 28 27 27 27 27 26 25 23 19 15 12 9 7 6 5 4 4 4 4 4 3 4 3 4 4 4 4
95 92 88 86 84 80 79 80 80 77 73 68 53 38 33 32 30 30 30 31 31 31 31 30 29 28 28 28 27 26 24 20 15 11 8 7 6 5 4 4 4 4 4 4 4 3 4 4 3 3 3 4
97 94 90 89 86 85 85 83 81 78 76 70 54 39 34 33 31 30 30 29 29 30 30 29 29 28 27 27 25 22 17 12 9 7 6 6 5 5 4 4 4 4 5 4 4 4 4 4 3 4 3 3
96 95 92 91 90 89 88 85 82 79 76 69 53 40 36 34 32 30 29 28 27 28 29 29 28 26 25 22 19 15 11 9 7 7 6 5 5 5 5 5 5 5 5 5 4 4 4 4 4 4 4 4
98 95 93 93 92 90 87 84 83 81 75 65 52 43 40 37 33 31 28 26 25 26 26 26 25 23 20 16 13 11 9 7 7 6 5 5 5 5 6 5 6 5 5 5 5 5 5 5 5 4 5 4
99 97 97 96 94 91 89 87 85 81 71 61 54 49 45 41 36 32 29 26 23 23 23 22 21 18 15 13 11 9 8 7 6 6 6 5 6 6 6 6 6 6 6 6 6 6 6 5 5 5 5 5
98 97 97 96 95 95 92 90 85 77 69 62 58 53 50 45 39 33 29 26 22 21 20 19 18 15 13 11 10 9 8 8 7 6 6 6 6 6 7 7 7 7 6 6 7 6 6 7 6 6 6 6
92 90 89 87 89 92 92 89 83 76 71 67 63 56 51 47 41 35 30 26 22 19 18 17 16 14 12 10 9 9 9 8 8 7 7 7 7 7 7 7 7 7 7 7 7 7 7 7 7 7 7 7
85 83 81 79 81 86 88 87 83 78 75 72 67 59 52 48 42 37 32 27 23 19 17 16 15 13 12 10 9 9 9 8 8 7 7 8 8 8 8 7 8 7 8 8 7 8 7 8 8 8 8 8
83 82 80 78 78 81 82 84 82 80 79 74 68 60 53 49 43 38 34 29 25 20 17 15 14 13 11 10 9 9 9 9 8 8 8 8 8 9 8 8 8 8 8 8 8 9 8 9 9 8 9 8
84 83 81 78 76 75 78 83 83 82 80 75 69 61 54 49 44 40 35 31 27 23 19 15 14 13 12 11 10 10 10 9 8 8 8 9 9 9 9 9 9 9 9 9 9 9 9 10 10 10 10 10
85 84 82 79 75 74 78 83 84 83 80 75 70 62 54 50 47 42 38 33 30 27 23 19 16 14 13 12 11 10 10 10 9 9 9 10 10 10 10 10 10 10 10 10 11 11 11 11 11 11 11 12
87 86 84 81 78 78 80 82 83 82 79 76 72 65 58 54 50 46 41 37 33 29 27 22 19 16 15 14 13 12 11 11 10 10 11 10 11 11 11 11 11 12 12 12 12 12 13 12 12 13 12 13
89 87 87 83 80 80 79 80 81 82 79 76 73 68 63 58 54 50 45 41 36 32 30 26 22 19 18 17 15 14 12 12 11 10 11 11 12 12 12 13 12 13 13 13 14 13 14 14 14 14 14 14
91 90 89 85 81 79 76 76 78 79 77 75 73 70 65 60 57 54 50 44 39 36 33 29 25 23 21 20 18 17 15 13 12 11 12 12 13 13 13 14 14 14 14 14 15 15 15 15 16 16 16 16
93 93 90 83 80 80 77 75 75 75 76 74 72 69 65 62 60 58 54 49 45 41 37 33 30 29 27 24 23 20 18 15 14 13 13 13 13 14 14 15 15 15 16 16 16 17 17 17 17 17 18 18
94 92 87 80 79 82 80 77 75 75 78 76 73 71 68 67 66 63 60 56 52 47 43 39 35 34 32 28 26 23 20 17 15 14 13 14 14 15 16 16 16 17 17 18 18 19 19 19 19 19 19 19
90 86 81 77 79 85 86 83 81 80 79 78 76 75 73 73 71 67 65 63 58 52 47 42 37 35 34 31 28 24 21 19 16 14 13 14 15 16 17 17 18 18 19 19 20 21 20 21 21 21 21 21
83 81 77 75 78 82 85 85 85 83 81 80 78 76 75 75 74 70 69 67 62 57 50 45 40 38 37 35 32 27 22 19 18 16 15 15 16 17 17 18 19 19 20 21 22 23 23 23 23 23 23 23
79 77 74 72 73 74 78 83 85 85 83 78 74 73 74 73 74 73 72 69 64 59 53 48 45 42 40 38 35 30 25 23 23 20 17 16 18 19 19 19 20 21 22 23 23 24 25 25 25 25 25 25
77 73 70 68 68 68 72 78 81 80 77 73 70 71 71 71 72 73 72 69 65 61 57 53 50 46 43 40 38 36 32 29 27 24 20 18 18 19 20 20 21 22 23 23 24 26 27 28 27 27 27 26
76 73 70 68 69 70 74 79 82 82 80 77 76 74 73 73 71 70 68 66 65 63 61 58 54 51 47 45 42 40 38 34 28 26 23 20 18 19 20 21 22 22 24 24 25 28 29 29 29 28 26 25
79 74 72 71 72 75 79 83 87 88 87 84 83 82 80 75 70 68 67 65 66 65 64 62 58 55 51 49 46 44 43 38 32 28 26 23 19 19 20 20 21 22 24 25 26 29 30 30 29 28 25 25
81 76 74 74 75 78 82 86 90 90 89 86 84 80 73 69 68 67 66 65 65 63 63 61 59 56 53 51 49 47 45 42 39 34 31 30 25 21 20 20 23 24 25 25 26 28 29 29 28 27 27 28
81 78 76 76 76 79 81 86 88 85 81 77 73 65 59 61 63 62 62 61 61 60 60 60 58 56 53 51 50 48 47 46 45 41 37 35 32 27 22 22 25 26 26 27 28 29 28 28 28 29 30 30
80 78 78 78 78 80 83 86 85 80 75 71 68 64 62 63 61 60 60 60 59 59 59 59 58 57 54 52 51 50 49 48 47 45 43 40 38 34 28 25 25 26 27 29 29 29 29 30 30 32 34 33

ECMWFFLT2_850_rhum_120.txt.gz
RH
99 98 96 87 69 58 57 56 58 59 58 55 51 47 45 46 44 41 43 52 62 61 58 55 50 44 42 36 23 20 20 18 19 18 18 18 17 18 17 17 17 17 17 16 16 16 16 16 16 16 16 16
95 92 83 71 62 60 62 61 64 64 62 60 55 49 41 38 35 34 38 43 41 36 35 36 38 35 34 34 25 22 22 21 21 20 21 20 20 20 20 20 20 20 20 21 20 20 20 20 20 20 20 20
93 87 74 66 67 67 66 66 68 68 67 65 61 54 41 33 32 31 33 35 33 31 30 29 30 30 32 36 31 24 23 23 22 23 23 22 23 22 23 22 21 21 20 21 20 20 19 18 18 17 17 17
94 87 76 73 74 71 70 70 71 73 72 71 69 61 46 35 31 31 30 30 30 30 30 29 29 28 30 36 35 26 23 25 24 24 24 23 23 20 19 16 14 13 11 12 10 10 9 9 9 7 8 7
95 89 81 78 77 74 74 75 77 78 76 75 73 67 55 40 32 31 30 30 30 30 30 30 29 28 27 31 30 24 24 25 24 24 22 19 15 12 10 7 6 5 4 5 3 4 4 4 3 3 4 3
95 91 84 81 79 77 79 80 80 78 76 76 74 70 62 46 33 32 31 30 31 30 31 30 30 29 27 28 26 25 25 24 23 20 15 11 8 6 5 4 4 3 3 3 3 3 3 4 3 3 3 3
96 92 87 83 81 81 83 83 80 78 76 77 76 73 68 53 35 32 31 30 30 30 30 29 29 29 28 28 27 27 25 22 18 12 9 6 5 5 4 4 4 4 4 3 4 3 3 4 3 4 3 3
97 94 90 86 84 85 85 84 81 80 79 81 80 75 73 58 37 32 32 30 29 28 28 28 29 30 29 28 28 26 23 19 13 9 7 6 5 5 4 4 4 4 4 4 4 4 4 4 3 4 3 4
98 96 94 91 90 89 88 87 84 84 84 83 81 78 76 61 40 34 33 30 29 26 25 27 28 29 29 28 27 24 19 14 10 8 7 6 5 5 5 5 5 5 5 5 4 5 4 4 4 4 4 4
99 97 96 95 95 94 91 90 88 88 87 84 81 79 77 61 43 38 36 32 29 26 24 24 26 27 28 26 24 20 16 12 9 8 7 6 6 5 6 5 6 5 5 5 5 5 5 5 5 5 5 5
100 99 97 96 95 94 92 91 90 90 88 84 83 82 77 61 47 44 40 35 30 26 24 23 24 24 25 23 21 16 13 11 8 8 7 6 6 6 7 6 7 6 6 6 6 6 5 6 5 6 6 5
100 100 99 98 96 95 94 94 92 91 88 86 85 82 74 61 52 49 43 38 33 28 24 22 22 22 22 20 17 14 11 10 9 9 8 7 7 7 7 7 7 7 7 7 6 7 6 7 6 6 6 6
100 100 100 99 98 98 97 95 93 92 90 89 87 80 73 65 57 51 46 42 36 30 25 22 21 20 19 17 14 12 10 10 9 9 8 7 7 7 8 8 8 8 8 7 7 7 7 7 7 7 7 7
100 99 99 99 99 99 97 94 92 91 89 89 86 80 75 71 63 55 50 46 39 32 27 23 21 19 18 16 14 12 10 10 9 9 8 7 7 8 8 8 9 8 8 8 8 8 8 8 8 8 8 7
98 98 98 99 100 100 96 93 90 88 88 88 85 81 79 76 69 61 53 49 43 36 30 25 22 19 18 16 14 12 11 10 9 9 8 8 7 8 9 9 9 8 9 9 8 9 8 9 9 9 9 8
97 97 98 99 100 99 95 90 88 87 88 87 85 83 81 80 74 64 56 51 45 39 33 28 24 20 18 17 15 13 11 11 10 9 8 8 8 8 9 9 9 9 9 9 9 10 9 10 10 10 11 10
96 96 98 99 100 98 93 89 87 86 86 87 86 84 83 82 77 67 60 54 48 42 37 32 28 23 20 18 16 14 12 12 10 10 9 8 9 9 9 9 10 10 10 10 10 10 10 11 11 11 12 12
95 96 97 99 99 97 92 88 86 84 84 87 86 85 85 82 77 70 63 58 52 47 41 36 31 27 24 20 17 16 14 13 11 11 9 9 9 9 10 10 10 11 10 11 11 11 12 12 12 13 13 13
96 95 95 95 95 94 91 87 85 84 84 86 86 85 85 82 76 71 65 61 57 53 47 41 35 31 29 25 21 18 16 14 12 11 10 9 10 10 11 11 11 12 12 12 12 12 12 13 13 13 14 14
97 95 95 94 92 90 89 88 87 86 85 85 86 86 85 81 75 71 68 65 61 58 53 46 40 36 33 30 26 22 19 17 15 13 11 10 10 11 12 12 12 12 13 13 13 14 14 14 14 14 15 15
98 97 96 94 93 91 91 90 91 89 88 88 88 86 83 78 75 73 71 69 65 62 59 54 49 44 39 35 30 27 24 20 18 16 13 11 11 12 12 13 13 13 14 14 14 15 15 15 16 16 16 16
100 99 96 95 93 94 95 94 94 93 91 90 89 85 80 77 76 76 75 73 70 68 66 64 59 53 47 41 36 32 29 25 22 19 16 14 12 12 13 14 14 15 15 16 16 16 16 17 17 17 18 18
100 100 98 97 96 96 99 98 97 98 94 90 88 84 80 80 80 79 77 77 76 74 73 70 66 61 54 48 42 38 35 31 26 22 19 17 14 13 14 14 15 16 16 16 17 17 18 18 19 19 20 20
100 101 100 100 99 98 98 99 99 99 95 88 85 84 82 82 82 80 80 81 81 80 78 75 71 67 63 58 51 45 40 35 32 29 26 22 19 16 14 15 16 17 17 18 18 19 20 20 21 22 21 22
98 99 99 99 100 98 97 99 99 99 95 86 82 84 85 84 84 83 83 84 84 84 82 78 75 72 69 65 58 51 45 41 40 38 34 30 26 20 16 16 17 18 18 19 19 20 21 22 22 23 23 24
95 95 95 95 96 96 96 97 96 93 88 82 78 82 85 85 86 86 86 85 86 86 83 80 77 74 73 70 64 58 54 50 47 43 40 36 31 25 19 17 17 19 19 19 20 21 23 24 24 25 24 25
89 90 92 93 93 94 94 95 92 87 83 79 77 79 82 84 87 88 88 87 86 84 83 80 79 78 78 76 72 67 63 58 53 48 45 41 36 31 25 20 18 19 20 20 21 24 25 25 26 26 24 24
82 88 94 95 94 94 94 95 92 87 83 80 77 78 80 83 86 88 88 88 86 83 82 81 81 81 81 80 77 74 70 65 60 55 50 47 43 39 33 25 20 19 20 21 22 25 26 27 29 28 24 23
83 92 97 97 96 95 95 94 92 87 83 79 77 76 76 80 84 88 89 90 88 85 83 82 81 81 81 81 79 77 74 70 66 61 57 53 49 46 42 34 27 22 20 21 22 24 26 28 30 28 25 24
80 92 98 99 97 96 94 92 90 86 82 78 75 72 72 77 82 86 89 90 89 86 85 84 82 82 81 80 79 78 76 73 70 67 62 58 54 50 48 44 38 30 24 22 23 25 26 27 28 28 27 26
73 86 93 97 97 95 92 90 88 85 81 77 74 72 72 76 79 82 86 89 88 86 85 84 83 82 81 80 79 78 77 75 72 68 64 61 58 54 52 49 46 40 32 26 24 24 26 28 29 28 29 29

ECMWFFLT2_850_rhum_123.txt.gz
RH
94 93 93 95 98 99 99 100 94 78 66 61 57 54 52 45 39 42 47 66 86 90 88 67 57 68 59 47 48 53 48 47 47 33 22 17 16 17 16 16 16 16 16 15 16 15 16 15 16 16 16 17
96 93 93 94 96 98 96 90 76 61 59 61 61 59 57 50 36 34 34 45 58 58 55 43 49 62 61 54 47 48 44 38 35 22 18 19 18 19 18 19 18 18 18 18 18 19 19 18 19 19 20 19
97 94 92 92 92 90 81 70 62 59 63 64 64 64 63 55 39 32 31 33 37 34 33 32 35 40 52 64 50 41 38 30 28 22 21 22 22 22 22 22 22 22 22 22 21 21 21 20 21 20 22 20
98 95 91 90 86 76 65 60 62 64 66 67 68 69 67 61 46 34 30 29 30 29 30 29 31 33 41 56 49 35 28 24 24 23 24 24 24 23 22 21 19 18 17 16 15 14 13 12 13 12 13 12
98 95 92 89 82 69 63 62 65 67 69 72 73 73 70 64 53 39 30 29 29 28 30 28 30 33 34 41 40 28 23 24 25 25 25 22 20 16 14 12 9 8 7 7 6 5 5 4 4 4 4 4
98 96 94 90 81 69 65 66 68 70 74 77 76 74 71 66 59 45 32 29 30 28 29 29 28 30 30 31 29 24 24 25 24 23 20 15 11 8 6 5 4 4 3 3 3 3 3 3 3 2 3 3
99 97 97 92 82 73 69 70 72 75 78 79 76 75 74 70 65 52 36 30 30 28 27 27 28 29 28 27 24 22 23 22 21 17 12 8 5 4 4 4 3 3 3 3 3 3 3 2 3 3 3 3
100 99 99 94 86 78 75 74 75 79 81 79 77 78 77 73 69 58 41 32 30 29 26 24 26 28 27 26 24 21 20 19 16 10 7 6 4 4 4 4 4 3 4 3 3 3 3 3 3 3 3 3
100 100 100 97 90 85 80 78 79 82 82 81 80 80 80 76 73 66 47 34 32 29 25 23 23 25 26 24 23 20 18 15 11 8 6 5 4 4 4 4 4 4 4 4 4 4 3 4 4 4 4 4
99 99 100 98 94 90 85 82 82 85 85 85 85 83 83 79 76 72 53 37 34 31 26 23 20 21 22 22 21 18 16 13 9 7 6 5 5 5 5 5 5 4 5 4 4 5 4 5 4 5 5 4
99 99 99 100 97 93 90 88 87 89 90 90 89 87 85 81 80 76 58 42 38 33 27 23 19 19 19 20 20 18 15 12 9 7 6 6 5 5 5 5 6 5 5 5 5 5 5 5 5 5 5 5
100 99 98 99 98 95 93 93 92 92 92 92 91 89 86 83 83 79 62 47 42 36 29 24 19 17 18 18 19 18 14 11 9 8 7 6 5 6 6 6 6 6 6 5 6 6 6 6 6 6 6 6
100 97 95 97 98 97 96 96 95 94 93 92 92 90 87 85 85 80 66 52 43 37 31 26 21 17 17 18 18 17 14 12 9 8 8 7 6 6 6 6 6 6 7 6 6 6 6 6 6 6 6 6
99 95 92 94 99 99 98 98 97 96 95 94 93 90 88 87 85 78 70 59 47 40 36 30 24 19 17 17 17 16 14 12 9 9 9 8 7 6 6 7 7 7 7 7 7 7 7 7 7 7 7 6
99 96 93 93 97 100 99 99 99 96 96 95 94 91 88 87 84 79 75 67 54 43 39 35 29 23 19 17 16 16 14 12 10 9 9 8 7 7 7 7 8 8 8 8 8 8 8 7 8 7 8 8
100 99 97 94 95 100 100 99 100 98 97 98 95 90 86 86 84 80 79 74 62 49 43 39 34 28 23 19 17 16 15 13 11 10 9 9 8 7 8 8 9 9 9 9 9 9 9 9 9 9 9 9
100 100 100 97 94 97 101 100 100 99 99 99 95 89 85 85 85 82 80 78 69 57 49 45 39 33 27 22 19 16 15 14 12 11 10 9 8 8 8 8 9 10 10 10 10 9 10 10 10 10 10 10
100 100 100 99 96 95 99 100 100 99 100 100 96 89 87 86 85 82 81 81 76 64 55 50 45 39 33 27 22 18 16 15 13 12 11 10 9 8 8 9 9 10 10 10 11 10 11 11 11 11 12 12
100 100 100 100 97 94 96 100 100 100 100 99 95 89 87 85 84 84 83 82 79 70 61 55 51 46 40 34 28 24 20 17 15 13 12 10 9 9 8 9 10 10 11 11 11 11 11 12 12 12 13 13
100 100 100 100 98 95 96 100 100 99 99 99 95 90 84 82 84 84 83 82 79 74 67 60 56 54 48 41 34 29 26 21 18 16 14 12 10 10 9 10 11 11 11 11 12 12 12 12 13 13 13 14
100 100 100 100 99 98 99 100 98 97 98 100 98 92 85 83 85 85 83 82 81 78 71 65 62 62 58 50 43 37 32 27 24 21 18 16 13 11 10 10 11 11 12 12 12 12 13 13 13 14 14 15
100 100 100 100 100 99 100 100 98 98 99 100 98 94 90 88 87 86 85 84 84 82 76 72 71 69 66 61 54 46 39 35 31 27 23 19 16 13 11 11 11 12 13 13 13 13 13 14 14 15 15 16
100 100 100 100 100 100 100 100 100 100 100 99 98 97 94 92 90 89 88 86 85 84 81 79 77 74 72 69 63 56 49 44 38 32 27 23 19 16 14 12 12 12 13 13 13 14 14 15 15 15 16 17
100 101 100 100 100 100 100 100 100 100 100 100 99 100 99 95 93 92 90 89 87 87 86 84 81 79 77 75 72 66 59 52 46 40 34 31 27 22 18 15 13 13 13 14 14 15 15 15 16 16 17 18
99 100 100 100 100 100 100 100 100 100 100 99 96 98 101 99 96 95 93 91 89 88 88 87 85 83 81 80 77 73 67 62 57 52 46 41 37 31 25 20 17 15 14 15 15 16 16 16 16 17 18 18
99 100 100 100 100 100 100 100 100 100 100 99 94 92 97 100 99 98 97 93 90 90 89 88 87 85 84 83 80 78 76 72 68 63 56 49 44 38 33 28 23 18 16 16 16 16 17 18 18 18 19 19
96 96 96 98 100 100 100 100 100 99 98 99 98 94 94 99 100 100 100 95 90 90 89 88 88 87 86 86 85 84 82 80 76 72 66 59 52 47 42 36 31 24 19 16 16 18 18 18 19 20 19 19
91 92 94 97 99 100 99 99 100 100 99 99 100 99 98 100 100 100 101 97 90 89 90 88 88 89 89 89 88 87 86 84 82 79 75 70 63 57 51 46 40 33 26 20 17 18 19 20 21 22 20 19
91 94 97 100 100 100 100 100 100 100 100 100 99 100 100 99 100 100 101 98 90 88 90 89 89 90 90 91 90 89 88 86 85 84 81 78 72 67 62 55 50 44 38 30 22 19 19 20 23 22 20 20
91 95 98 99 99 99 99 99 100 100 100 100 99 97 95 93 96 99 100 98 91 86 88 89 89 90 91 92 91 90 89 88 87 86 84 81 78 75 71 65 59 53 49 43 34 25 20 19 21 22 22 23
91 96 98 99 98 98 98 97 97 97 97 98 98 96 93 90 93 97 97 95 89 84 84 86 87 90 91 92 92 91 90 89 88 86 84 83 82 79 76 71 66 61 56 51 45 37 29 22 21 22 23 24

ECMWFFLT2_850_rhum_126.txt.gz
RH
93 91 92 91 88 84 81 83 85 90 87 73 63 60 57 54 51 42 46 74 93 91 83 86 97 99 100 101 98 100 100 99 100 96 82 47 20 16 16 16 16 16 16 16 17 16 17 16 17 17 18 23
99 97 94 90 86 81 78 81 84 85 77 66 60 60 59 56 52 41 39 53 76 87 63 61 87 90 94 102 97 96 99 97 88 73 51 25 16 17 16 17 16 17 16 17 17 16 17 16 17 17 19 22
98 98 93 87 83 78 77 79 82 81 71 62 61 62 62 60 55 45 39 40 55 68 47 41 64 74 88 99 97 94 95 93 72 49 32 18 18 19 18 19 17 19 17 18 18 17 19 17 19 19 20 20
97 98 93 88 85 79 78 80 80 77 67 61 62 64 65 63 61 51 43 36 37 42 36 33 37 53 82 94 93 88 88 87 62 36 26 20 22 22 22 22 21 22 21 22 22 22 22 21 23 21 24 22
98 98 95 91 87 83 82 82 77 72 64 62 65 66 69 69 65 57 45 33 30 32 32 33 29 35 64 86 84 70 65 65 46 27 24 24 24 24 23 23 21 21 20 20 19 19 19 18 20 17 20 19
99 96 94 90 88 87 85 81 74 69 65 65 68 70 72 70 65 59 48 35 29 32 31 31 31 29 47 70 63 44 37 35 29 24 24 24 22 19 17 15 13 12 11 11 9 9 9 8 9 8 9 9
99 96 92 90 89 88 86 80 74 69 68 68 71 75 74 70 68 63 55 41 29 31 31 29 31 29 36 44 36 28 25 23 23 23 22 18 14 11 8 7 6 5 4 4 4 3 4 3 4 3 4 4
100 97 94 93 90 89 87 82 76 71 69 70 74 76 74 73 73 70 63 50 34 29 30 28 29 29 30 31 27 25 24 23 21 18 15 10 7 6 4 5 4 4 3 3 4 3 3 3 3 3 3 3
99 98 98 96 93 91 89 85 79 73 71 72 76 76 75 76 76 74 70 59 41 31 30 29 28 29 29 29 26 25 24 21 17 12 9 6 5 5 4 4 4 4 4 3 3 3 3 3 3 3 3 3
98 97 98 97 95 94 92 89 82 76 73 75 77 76 77 79 78 77 74 67 50 34 31 29 27 28 27 27 26 24 22 18 13 9 6 6 5 4 4 4 4 4 4 4 4 3 4 3 3 4 3 3
97 95 97 98 97 96 95 92 85 78 75 77 79 79 82 83 82 79 76 73 57 39 33 29 25 25 25 26 25 23 20 15 11 8 6 6 5 5 5 4 5 4 4 4 4 4 4 4 4 4 4 4
99 97 97 99 98 98 98 94 88 82 78 79 81 83 86 87 85 80 78 77 62 44 37 31 25 23 23 24 23 21 18 13 10 8 6 6 5 5 5 5 5 5 5 5 5 5 5 5 5 4 5 5
100 100 99 99 100 99 99 97 92 87 83 82 83 85 87 88 86 81 80 79 67 51 41 34 27 23 21 20 21 19 16 13 10 8 7 6 6 6 5 6 6 5 5 5 5 5 6 5 6 6 5 6
100 100 100 99 99 99 98 96 94 90 87 87 87 88 88 87 86 82 82 80 70 56 45 37 30 24 21 19 19 17 15 12 10 8 8 7 6 6 6 6 6 6 6 6 6 5 6 6 5 7 6 6
100 100 100 100 99 97 96 93 93 92 89 90 92 91 89 88 86 84 84 80 71 62 51 41 34 28 23 19 17 16 14 13 11 9 8 7 7 6 6 7 6 6 7 6 7 6 6 7 6 7 6 7
100 100 100 100 100 98 95 91 90 92 92 91 93 92 90 89 88 87 87 82 75 71 61 47 38 32 27 22 18 16 14 13 12 10 8 8 7 7 6 7 7 7 7 7 7 7 7 7 7 7 7 7
100 100 100 100 99 97 95 91 88 90 93 93 95 95 91 91 91 89 87 83 79 77 70 54 42 37 31 26 21 17 15 14 13 11 9 9 8 8 7 7 7 7 8 8 8 8 8 8 8 8 8 8
100 99 100 100 99 98 95 91 89 89 92 95 98 97 93 92 94 91 87 83 81 80 76 63 48 41 37 32 26 21 17 15 14 12 11 10 9 9 8 7 7 8 8 8 9 8 9 9 9 9 9 10
100 100 100 100 100 100 98 96 93 92 93 96 99 99 94 92 95 93 87 84 83 80 78 70 56 48 43 38 32 26 22 18 16 14 13 12 10 9 9 8 7 9 9 9 9 9 10 9 9 10 10 10
100 100 100 100 100 100 100 99 98 98 96 96 99 100 97 94 96 95 89 84 83 80 79 75 66 57 50 46 41 34 29 25 21 17 15 13 12 11 10 9 9 9 10 10 10 10 10 11 11 11 11 12
100 100 100 100 100 100 100 100 100 100 99 97 98 100 99 96 98 97 90 84 81 80 79 78 74 66 58 54 50 44 37 32 27 23 19 17 15 14 12 11 10 10 11 11 11 11 11 11 11 12 12 12
100 100 100 100 100 100 100 101 100 100 100 99 98 100 99 98 100 99 91 82 80 81 81 80 79 74 67 63 59 54 48 41 35 30 26 23 19 17 15 13 12 11 12 12 12 12 12 12 12 13 13 13
100 100 100 100 100 100 100 100 100 100 100 100 99 100 101 99 99 101 95 86 81 82 83 82 82 79 75 71 67 63 59 51 44 37 32 29 25 21 18 16 14 13 12 12 13 13 13 13 13 13 13 14
100 100 100 100 100 100 100 100 100 100 100 100 98 98 100 100 96 97 98 92 86 83 85 84 83 83 82 77 72 68 65 59 53 47 42 37 32 28 24 21 18 15 14 13 13 13 13 14 14 14 14 14
99 100 100 100 100 100 100 100 100 100 100 101 99 99 100 100 98 96 96 95 91 87 86 86 85 86 86 82 77 72 69 66 64 60 56 49 43 38 34 29 24 20 17 14 14 14 14 14 14 14 15 15
100 100 100 100 100 100 100 100 100 100 100 98 98 97 96 100 100 98 97 98 97 93 89 88 87 87 87 84 79 76 74 73 73 72 68 62 55 48 42 36 31 26 22 18 16 15 14 15 15 15 16 16
99 99 100 100 100 100 100 100 100 100 98 95 95 91 91 98 100 98 99 99 98 97 93 90 90 90 87 84 81 79 79 78 77 77 76 72 66 58 51 45 38 32 28 23 18 16 15 15 15 16 16 16
100 100 100 100 100 100 100 100 99 100 99 97 98 96 95 98 99 98 98 95 94 97 96 93 94 94 90 85 83 82 82 82 81 81 80 78 75 70 63 56 49 41 36 32 24 18 16 17 18 17 17 17
100 100 100 100 100 100 100 100 100 100 100 100 100 100 99 96 96 99 98 93 94 97 98 97 96 97 95 89 85 85 85 84 84 85 84 83 82 80 76 70 63 56 49 42 34 25 18 19 21 20 20 20
100 100 100 100 100 100 100 100 100 100 100 100 99 100 100 94 92 97 98 94 94 96 98 100 98 97 97 93 87 86 86 86 87 88 87 86 86 84 83 79 73 69 64 56 49 39 29 23 21 20 21 21
100 100 100 101 100 100 100 99 100 100 99 100 100 99 100 94 87 92 93 90 95 97 96 99 99 97 98 96 91 87 88 88 88 89 89 89 88 86 87 83 77 76 75 68 61 54 46 37 30 24 22 21

ECMWFFLT2_850_rhum_129.txt.gz
RH
96 91 82 76 86 97 92 77 66 64 67 70 67 66 73 76 70 68 76 80 74 66 68 78 86 92 93 96 99 98 97 98 98 96 93 70 35 21 18 17 20 22 24 28 31 36 35 29 23 17 29 52
99 98 90 86 86 93 94 73 58 66 70 69 65 61 63 64 61 56 62 74 70 61 59 66 75 85 92 97 98 98 98 97 93 92 82 47 18 17 18 17 18 19 20 22 24 25 24 19 19 19 22 33
97 95 85 81 83 89 92 79 69 73 73 69 63 61 62 62 61 56 54 60 62 52 41 42 53 73 88 93 98 97 96 93 84 80 66 29 14 18 16 17 17 17 18 18 20 18 19 18 20 24 22 25
96 91 80 75 82 91 88 82 80 77 76 71 66 65 65 65 62 60 58 58 62 53 37 30 30 49 74 87 94 95 93 88 78 73 54 22 15 18 16 18 17 16 17 17 18 17 18 17 22 26 21 30
98 93 85 83 87 91 85 81 80 79 78 72 68 68 66 66 65 64 62 59 57 48 36 32 27 34 59 77 83 88 90 82 78 69 40 18 18 19 19 20 19 19 19 18 19 18 19 19 20 22 24 42
100 99 94 96 95 91 86 82 81 81 78 72 70 69 67 67 69 68 63 57 47 39 34 34 31 32 49 69 72 77 84 79 77 57 26 19 22 22 22 23 22 23 22 22 23 21 23 22 22 22 27 42
99 100 99 100 97 90 87 84 84 84 78 74 71 68 68 69 72 69 62 55 43 36 35 32 30 30 43 60 58 56 64 66 60 39 22 23 23 22 23 22 22 21 22 22 22 22 23 22 23 24 26 38
100 99 100 100 93 87 86 86 86 83 77 75 73 69 70 71 73 69 64 58 45 37 33 30 29 29 35 43 39 33 36 39 35 26 24 24 20 19 17 15 15 13 13 13 14 14 15 15 17 18 20 31
99 97 98 96 90 87 88 88 86 80 75 76 74 70 71 74 74 72 71 64 49 38 32 30 29 29 31 32 30 28 25 25 25 23 22 19 15 12 9 9 7 6 6 5 6 6 6 7 7 10 11 16
99 99 99 98 93 92 91 89 87 80 75 78 75 71 73 75 76 75 75 72 60 47 36 31 30 30 30 26 27 29 26 25 24 22 18 13 9 7 6 5 4 4 4 3 4 4 4 5 3 5 6 5
100 96 95 97 94 90 88 89 89 83 78 78 77 73 73 76 77 78 78 77 71 59 43 32 30 31 28 25 27 29 27 25 23 20 13 8 7 6 5 4 4 4 4 4 3 4 3 4 4 3 4 5
98 92 90 94 93 88 87 89 89 86 83 81 79 74 74 77 78 81 82 80 76 68 51 35 31 31 28 26 27 29 27 25 24 18 11 7 6 5 5 4 5 4 4 4 3 4 4 3 4 4 4 4
93 94 94 93 91 90 90 91 89 86 85 84 82 76 75 78 80 84 83 81 79 73 58 41 34 31 28 27 25 27 27 25 23 17 10 7 6 5 5 5 5 5 4 4 4 4 4 4 3 4 4 3
93 98 100 94 90 90 91 93 89 86 88 88 85 80 77 79 83 85 84 83 81 76 67 51 40 34 29 26 23 25 26 26 22 15 10 7 7 6 5 6 5 5 5 4 5 4 4 4 4 4 4 5
98 99 100 97 95 94 93 94 87 84 92 93 88 83 80 80 83 85 84 84 82 78 75 62 46 37 32 26 22 23 24 24 21 15 10 7 7 7 6 6 6 6 5 5 5 5 5 4 5 5 4 5
100 100 100 99 99 98 97 97 89 84 90 92 90 86 82 82 84 85 84 84 83 80 80 70 55 43 34 28 22 21 20 21 21 15 10 8 7 7 6 6 6 7 6 6 6 5 6 6 5 6 5 6
97 97 97 99 99 99 99 99 95 90 90 91 91 88 84 84 85 85 84 85 84 81 82 76 65 52 39 31 24 20 18 18 19 15 11 9 8 8 7 7 6 7 7 6 7 6 6 6 6 6 6 6
98 96 92 95 97 98 99 97 94 91 90 91 92 90 86 85 87 85 82 85 86 83 83 78 72 63 46 34 28 22 17 17 17 15 12 10 8 9 8 7 7 7 8 7 7 7 7 7 7 7 7 6
95 95 94 97 97 97 99 97 92 88 87 87 90 89 86 86 88 88 83 84 87 86 84 79 76 72 56 40 32 26 21 18 17 15 13 11 10 9 9 8 7 7 8 8 8 8 8 8 8 7 8 7
93 93 97 99 98 98 99 99 96 93 90 89 92 91 87 86 88 90 88 86 88 88 86 80 77 77 66 50 39 33 27 21 19 16 14 14 12 10 10 9 8 8 8 8 9 8 9 8 8 9 8 8
96 95 99 100 99 100 99 99 99 98 96 94 95 93 89 87 88 92 92 89 89 88 87 82 78 79 75 62 49 40 34 28 23 19 17 15 14 12 11 11 10 10 8 8 9 9 9 9 9 10 9 10
99 97 100 98 98 100 99 100 100 99 99 97 95 94 90 87 87 91 94 92 90 89 87 84 80 78 77 72 60 49 43 37 30 25 21 18 16 15 14 13 12 11 10 9 9 9 10 10 10 10 10 11
97 98 100 97 96 100 100 100 100 99 100 99 98 96 89 86 88 89 94 95 90 90 88 83 81 78 76 76 70 60 52 47 40 33 28 24 21 19 18 16 14 13 11 9 10 10 10 11 11 11 11 11
92 96 100 99 99 100 100 100 100 100 100 99 99 99 91 86 89 88 93 98 94 92 90 84 81 79 77 78 76 70 61 55 49 43 38 32 27 25 23 20 17 14 13 11 11 11 11 11 11 12 12 11
94 97 100 100 100 100 100 100 99 98 100 99 98 99 95 91 91 89 91 98 97 93 93 89 83 80 78 78 80 76 69 62 57 54 51 45 38 34 30 26 22 18 17 15 13 12 11 11 12 12 13 12
97 95 99 99 97 98 100 100 101 100 98 98 98 97 97 97 96 93 92 97 99 93 92 93 87 83 80 80 82 80 75 69 64 63 61 57 52 46 41 36 31 27 24 21 17 14 13 12 13 12 13 13
99 96 99 97 94 94 94 96 99 96 93 94 99 98 97 100 99 97 96 96 98 94 91 93 91 87 82 82 84 82 79 75 69 68 67 66 63 59 53 46 41 36 31 27 23 19 17 15 14 15 13 13
100 98 98 95 94 94 92 93 93 91 94 95 98 100 99 100 99 98 98 96 98 97 95 95 94 93 87 83 84 84 83 79 74 70 69 70 70 69 65 58 53 46 39 35 28 21 18 16 14 16 15 13
98 98 99 97 98 99 97 98 97 95 98 97 96 99 99 98 98 99 99 98 97 97 99 98 95 94 93 88 84 85 86 83 78 74 72 74 75 75 73 69 65 61 54 46 37 25 17 16 16 16 17 17
98 99 100 98 98 101 100 100 100 99 99 96 93 90 89 92 95 98 100 100 98 97 98 100 97 93 92 91 87 84 87 87 84 80 77 78 78 79 78 77 75 73 71 64 53 41 27 20 19 17 18 20
99 99 99 98 98 100 100 98 96 95 95 94 91 84 83 87 90 93 97 99 99 98 97 99 101 96 90 90 90 87 85 86 88 85 81 81 81 80 81 82 79 75 78 79 69 60 50 36 26 20 18 18

ECMWFFLT2_850_rhum_132.txt.gz
RH
95 88 84 82 73 64 64 71 71 73 74 68 63 57 58 57 54 53 51 59 67 70 71 74 81 90 94 94 96 94 94 97 90 90 91 85 84 76 44 22 28 39 43 45 47 45 43 34 23 36 62 81
94 91 89 81 69 64 61 63 69 75 70 63 64 55 54 58 55 52 51 53 52 52 47 45 62 78 89 96 96 96 96 96 91 82 75 62 47 34 25 30 37 39 42 43 45 44 42 30 25 41 55 72
93 95 96 86 78 75 65 63 71 76 70 66 65 55 54 55 54 53 51 54 52 51 46 36 45 64 82 92 93 94 93 92 81 60 50 39 21 16 22 32 37 40 39 37 41 41 37 25 27 41 46 68
97 94 95 93 90 83 71 70 72 67 67 70 67 61 60 58 56 55 52 53 53 53 51 41 39 55 75 84 84 83 80 75 70 53 34 22 15 16 18 22 26 31 31 31 34 33 28 20 28 35 41 73
98 95 96 97 94 87 78 75 70 64 70 73 70 67 66 64 61 59 55 53 55 56 51 45 41 47 61 72 72 64 57 54 61 56 30 15 16 15 15 17 18 21 22 23 25 24 22 17 26 28 35 73
97 98 99 98 98 95 85 79 75 72 77 76 72 71 71 68 66 63 60 56 55 54 49 47 43 41 42 50 56 47 42 45 51 44 24 15 15 14 15 15 15 17 17 18 19 19 19 16 23 22 30 67
98 98 99 99 100 97 88 84 82 80 79 78 74 73 72 70 68 66 63 59 54 49 48 48 45 40 35 36 41 37 33 36 37 29 21 18 15 16 16 15 15 16 16 17 17 17 18 16 20 20 30 65
100 98 98 100 100 98 94 89 86 84 82 79 76 73 72 71 71 69 64 58 52 49 47 47 45 41 38 36 34 30 27 25 24 22 22 20 17 18 17 17 17 17 18 18 18 18 18 17 19 19 28 58
100 100 99 100 100 100 98 93 89 88 85 80 76 73 73 72 72 72 67 60 54 51 48 46 45 42 40 40 36 31 26 22 19 19 22 21 21 20 19 20 19 20 21 20 21 20 20 21 21 22 25 44
99 100 99 100 100 100 99 94 90 89 86 80 76 74 74 73 72 72 69 65 62 59 56 51 46 42 40 38 35 29 24 20 17 18 21 22 22 22 22 21 21 22 21 21 22 21 22 23 23 24 24 31
99 100 99 100 100 99 98 95 92 90 87 82 77 75 74 73 73 73 70 69 70 71 69 65 57 47 39 35 31 26 22 19 17 19 20 21 22 21 20 18 18 17 15 16 16 16 16 17 20 21 22 25
97 100 99 100 101 99 96 93 90 87 84 80 76 75 75 74 74 74 72 72 73 75 76 74 68 55 42 34 29 24 21 20 19 20 20 21 20 17 14 11 11 9 8 8 6 8 7 8 11 10 15 19
94 98 97 93 94 97 93 85 80 80 80 78 76 77 76 75 76 75 74 75 76 76 77 77 72 61 47 35 29 25 21 20 21 21 20 20 16 11 8 6 6 4 4 4 3 4 3 4 4 4 7 7
92 96 94 89 89 89 84 75 71 74 79 80 78 77 77 75 75 76 75 77 78 77 78 79 74 64 51 36 30 26 22 20 21 22 20 19 13 7 6 5 4 3 4 3 3 4 3 5 2 4 4 2
97 96 94 94 92 87 82 75 69 68 74 81 83 80 77 76 74 76 76 78 80 78 79 81 77 70 58 42 33 29 24 20 21 23 21 19 14 8 6 5 5 4 4 3 4 4 3 4 3 4 4 3
101 97 95 96 92 87 87 86 79 74 77 83 87 84 79 77 76 76 77 78 81 79 78 81 79 76 67 52 39 32 26 20 22 25 23 21 15 9 7 5 5 4 5 4 4 4 3 4 3 4 4 3
100 100 98 97 93 90 91 93 89 83 84 87 89 86 81 81 79 78 78 80 81 79 78 81 81 79 74 64 48 34 28 22 21 24 24 22 16 10 8 5 6 5 5 5 4 5 4 4 4 4 4 3
99 100 100 99 97 95 96 98 94 87 85 88 91 87 83 84 82 81 80 80 82 80 79 82 82 81 77 71 58 40 30 24 20 20 22 22 18 12 9 6 6 6 6 6 5 6 5 5 5 5 5 4
98 100 100 100 99 99 99 99 97 92 89 91 90 84 84 86 85 83 81 80 82 79 77 80 82 82 79 75 66 50 36 27 21 19 20 22 19 13 9 8 8 7 7 6 6 7 6 6 5 5 6 5
88 96 100 99 98 98 99 99 96 93 93 95 92 84 85 87 82 81 82 81 82 80 76 78 81 82 80 75 70 60 45 32 23 19 17 18 18 14 10 9 8 9 7 7 7 7 7 7 6 6 7 5
79 85 97 101 98 97 98 99 98 96 97 99 98 91 86 86 83 80 82 83 83 83 78 76 80 83 82 76 71 65 52 38 28 22 17 15 16 14 12 10 9 9 9 8 7 8 8 7 7 7 7 7
80 83 95 100 99 98 98 100 99 98 99 99 100 97 91 88 87 84 83 84 85 86 82 79 81 84 85 79 74 69 59 46 34 27 21 16 16 15 14 12 9 10 9 8 7 8 8 8 8 8 8 8
88 90 95 97 100 99 96 99 101 100 100 100 99 99 98 95 93 91 88 84 84 88 87 83 83 86 86 81 76 74 67 55 43 35 28 21 18 16 15 13 11 11 11 10 8 7 8 8 9 9 8 8
96 96 94 93 99 97 88 86 93 100 99 99 101 99 99 98 95 94 93 88 85 89 90 87 85 86 88 84 78 77 73 65 55 45 36 28 22 18 16 14 13 14 13 11 10 9 9 9 10 10 9 9
99 100 98 96 95 92 85 78 81 97 102 99 100 100 98 98 96 95 97 96 90 89 92 91 89 87 88 85 80 78 76 73 67 58 47 37 30 23 18 16 15 15 15 14 13 11 11 10 11 11 10 10
99 99 99 100 97 93 89 79 71 81 97 100 99 100 100 100 100 99 99 100 95 93 95 93 91 89 89 87 82 78 78 76 72 65 56 46 38 31 24 20 17 16 15 14 13 12 12 12 12 12 11 12
98 99 99 99 100 98 95 92 81 76 90 101 100 99 100 99 100 100 99 100 99 98 96 94 93 90 90 90 84 79 79 77 73 67 62 54 47 40 33 28 25 21 18 15 14 15 15 13 12 13 12 12
98 98 99 99 100 100 98 101 98 92 96 100 97 98 100 100 100 100 100 100 100 99 96 95 95 93 91 91 88 83 80 78 75 72 67 60 54 49 43 38 33 28 24 22 20 19 18 16 15 15 13 11
96 94 95 95 96 99 99 99 100 99 101 96 90 90 90 89 89 91 95 98 100 100 98 95 94 94 93 93 92 88 83 80 79 78 74 67 60 57 55 50 43 36 32 29 26 22 19 18 17 17 14 11
94 95 96 96 96 98 98 99 100 99 101 99 94 92 89 87 88 90 93 97 99 100 100 98 95 94 94 96 96 92 85 81 80 81 80 75 68 63 62 60 55 48 42 38 35 31 26 21 17 16 14 13
83 90 95 98 99 100 99 99 100 99 99 100 99 99 99 98 98 98 98 99 100 100 100 100 98 98 97 97 97 95 90 83 80 82 82 81 76 70 67 66 64 61 56 51 47 43 39 32 23 18 15 14